Location: Lafig�re
(44.4503°N, 4.0357°E)
Time: 15:47:32
(UTC+00:00)

CZ-2C R/B - Pass Details

Date: 24 September 2020
Orbit: 391 x 588 km, 35.0° (Epoch: 26 October)

Event Time Altitude Azimuth Distance (km) Brightness Sun altitude
Rises 18:00:50 0° 254° (WSW) 2,614 6.4 -5.1°
Reaches altitude 10° 18:03:48 10° 232° (SW) 1,680 4.6 -5.6°
Maximum altitude 18:06:10 16° 194° (SSW) 1,325 3.4 -6.0°
Drops below altitude 10° 18:08:26 10° 155° (SSE) 1,603 3.4 -6.4°
Enters shadow 18:10:30 - 136° (SE) 2,206 3.9 -6.8°
